Fairbanks Ft. Wainwright, AK

2:56 AM AKDT on September 21, 2017 (GMT -0800)
Ladd Army Air Field

Weather History for PAFB - August, 2014

Change the Weather History Date:

Saturday, August 16, 2014

  Actual Average Record
Temperature  
Mean Temperature 58 °F -  
Max Temperature 72 °F 63 °F 84 °F (2004)
Min Temperature 44 °F 47 °F 44 °F (2014)
Degree Days  
Heating Degree Days 7    
Growing Degree Days 8 (Base 50)    
Moisture  
Dew Point 44 °F    
Average Humidity 64    
Maximum Humidity 93    
Minimum Humidity 33    
Precipitation  
Precipitation 0.00 in - - ()
Sea Level Pressure  
Sea Level Pressure 29.64 in    
Wind  
Wind Speed 6 mph (East)    
Max Wind Speed 13 mph    
Max Gust Speed -    
Visibility 10 miles    
Events      
Averages and records for this station are not official NWS values.
T = Trace of Precipitation, MM = Missing Value Source: NWS Daily Summary

Daily Weather History Graph

Daily Weather History Graph

Search for Another Location

Airport or City:

Trip Planner

Search our weather history database for the weather conditions in past years. The results will help you decide how hot, cold, wet, or windy it might be!

Date:

Astronomy

Aug. 16, 2014 Rise Set
Actual Time 5:40 AM AKDT 10:06 PM AKDT
Civil Twilight 4:33 AM AKDT 11:12 PM AKDT
Nautical Twilight 2:27 AM AKDT 1:22 AM AKDT
Astronomical Twilight Sun does not set Sun does not set
Moon 11:01 PM AKDT (8/16) 3:28 PM AKDT (8/16)
Length of Visible Light 18h 39m
Length of Day
16h 25m
Waning Gibbous, 57% of the Moon is Illuminated
Aug 16
Waning Gibbous
Aug 17
Last Quarter
Aug 25
New
Sep 2
First Quarter
Sep 8
Full

Hourly Weather History & Observations

Time (AKDT) Temp. Windchill Dew Point Humidity Pressure Visibility Wind Dir Wind Speed Gust Speed Precip Events Conditions
12:56 AM 51.1 °F - 48.0 °F 89% 29.67 in 10.0 mi East 3.5 mph - N/A   Clear
1:56 AM 50.0 °F - 46.9 °F 89% 29.68 in 10.0 mi ENE 4.6 mph - N/A   Partly Cloudy
2:56 AM 48.0 °F - 46.0 °F 93% 29.69 in 10.0 mi ENE 4.6 mph - N/A   Clear
3:56 AM 46.9 °F - 44.1 °F 90% 29.70 in 10.0 mi ENE 4.6 mph - N/A   Clear
4:56 AM 45.0 °F - 43.0 °F 93% 29.71 in 10.0 mi Calm Calm - N/A   Clear
5:56 AM 44.1 °F 40.8 °F 42.1 °F 93% 29.71 in 10.0 mi East 5.8 mph - N/A   Clear
6:56 AM 45.0 °F 43.5 °F 42.1 °F 90% 29.72 in 10.0 mi NE 3.5 mph - N/A   Clear
7:56 AM 46.9 °F - 44.1 °F 90% 29.72 in 10.0 mi East 4.6 mph - N/A   Clear
8:56 AM 52.0 °F - 46.9 °F 83% 29.71 in 10.0 mi East 8.1 mph - N/A   Clear
9:56 AM 57.9 °F - 46.0 °F 65% 29.71 in 10.0 mi East 9.2 mph - N/A   Clear
10:56 AM 63.0 °F - 44.1 °F 50% 29.69 in 10.0 mi East 10.4 mph - N/A   Clear
11:56 AM 66.0 °F - 43.0 °F 43% 29.68 in 10.0 mi East 9.2 mph - N/A   Clear
12:56 PM 66.9 °F - 43.0 °F 42% 29.65 in 10.0 mi ENE 8.1 mph - N/A   Clear
1:56 PM 68.0 °F - 43.0 °F 40% 29.63 in 10.0 mi ESE 8.1 mph - N/A   Clear
2:56 PM 68.0 °F - 42.1 °F 39% 29.62 in 10.0 mi East 9.2 mph - N/A   Clear
3:56 PM 69.1 °F - 43.0 °F 39% 29.60 in 10.0 mi East 9.2 mph - N/A   Clear
4:56 PM 72.0 °F - 41.0 °F 33% 29.58 in 10.0 mi ESE 12.7 mph - N/A   Partly Cloudy
5:56 PM 66.9 °F - 42.1 °F 40% 29.57 in 10.0 mi ESE 10.4 mph - N/A   Scattered Clouds
6:56 PM 66.9 °F - 43.0 °F 42% 29.56 in 10.0 mi East 8.1 mph - N/A   Clear
7:56 PM 66.0 °F - 42.1 °F 42% 29.56 in 10.0 mi ESE 6.9 mph - N/A   Clear
8:56 PM 64.0 °F - 43.0 °F 46% 29.56 in 10.0 mi East 8.1 mph - N/A   Clear
9:56 PM 59.0 °F - 46.0 °F 62% 29.57 in 10.0 mi NE 3.5 mph - N/A   Clear
10:56 PM 54.0 °F - 45.0 °F 72% 29.58 in 10.0 mi ENE 3.5 mph - N/A   Clear
11:56 PM 53.1 °F - 43.0 °F 69% 29.59 in 10.0 mi ENE 6.9 mph - N/A   Clear